This demonstration page uses our WeatherBlox Daily Observations layout. Learn more.

Left ArrowRight Arrow

39.01783, -85.05884

Hourly Observations for December 10, 2022

Temp ( °F °C ) Dew Point ( °F °C ) Humidity (%) Winds ( mph kmh ) Pressure ( in mb ) Visibility ( mi km ) Precip ( " mm )
12:52 am 00:52 Cloudy with Mist and Fog 44 6.7 43 6.1 96 96 NNW 7 11 30.14 1021 4 6 0.00 0.00
1:39 am 01:39 Cloudy with Mist and Fog 44 6.7 42 5.6 93 93 NW 6 9 30.17 1022 5 8 0.00 0.00
1:52 am 01:52 Cloudy with Mist and Fog 44 6.7 42 5.6 93 93 NNW 5 7 30.15 1021 5 8 0.00 0.00
2:52 am 02:52 Cloudy with Mist and Fog 44 6.7 43 6.1 96 96 Calm 30.16 1021 3 5 0.00 0.00
3:20 am 03:20 Cloudy with Mist and Fog 43 6.1 42 5.6 97 97 N 5 7 30.20 1023 3 4 0.00 0.00
3:52 am 03:52 Cloudy with Mist and Fog 42 5.6 42 5.6 100 100 NNE 5 7 30.15 1021 3 4 0.00 0.00
4:23 am 04:23 Cloudy with Mist and Fog 42 5.6 42 5.6 100 100 N 6 9 30.19 1022 2 3 0.00 0.00
4:32 am 04:32 Cloudy with Mist and Fog 42 5.6 42 5.6 100 100 N 8 13 30.18 1022 2 3 0.00 0.00
4:52 am 04:52 Mostly Cloudy with Mist and Fog 41 5 41 5 100 100 NNW 6 9 30.16 1021 3 5 0.00 0.00
5:11 am 05:11 Mostly Cloudy with Mist and Fog 41 5 40 4.4 96 96 NNE 6 9 30.18 1022 3 4 0.00 0.00
5:37 am 05:37 Cloudy with Mist and Fog 41 5 40 4.4 96 96 N 6 9 30.20 1023 3 5 0.00 0.00
5:52 am 05:52 Mostly Cloudy with Mist and Fog 40 4.4 40 4.4 100 100 VRB 5 7 30.16 1021 3 5 0.00 0.00
6:36 am 06:36 Cloudy with Mist and Fog 41 5 40 4.4 96 96 N 3 6 30.20 1023 3 5 0.00 0.00
6:52 am 06:52 Cloudy with Mist and Fog 41 5 40 4.4 96 96 E 3 6 30.18 1022 3 5 0.00 0.00
7:05 am 07:05 Cloudy with Mist and Fog 41 5 40 4.4 96 96 N 5 7 30.21 1023 3 4 0.00 0.00
7:25 am 07:25 Cloudy with Mist and Fog 40 4.4 40 4.4 100 100 N 6 9 30.21 1023 1 2 0.00 0.00
7:28 am 07:28 Cloudy with Mist and Fog 40 4.4 40 4.4 100 100 N 3 6 30.21 1023 1 1 0.00 0.00
7:52 am 07:52 Cloudy with Mist and Fog 40 4.4 39 3.9 97 97 N 5 7 30.19 1023 1 1 0.00 0.00
8:52 am 08:52 Cloudy with Mist and Fog 41 5 40 4.4 96 96 Calm 30.20 1023 1 1 0.00 0.00
9:35 am 09:35 Cloudy with Mist and Fog 41 5 40 4.4 96 96 ENE 5 7 30.23 1024 1 2 0.00 0.00
9:52 am 09:52 Cloudy with Mist and Fog 41 5 40 4.4 96 96 ENE 6 9 30.21 1023 1 2 0.00 0.00
10:52 am 10:52 Cloudy with Mist and Fog 42 5.6 40 4.4 92 92 Calm 30.21 1023 2 3 0.00 0.00
11:33 am 11:33 Cloudy with Mist and Fog 43 6.1 40 4.4 89 89 SE 6 9 30.21 1023 3 5 0.00 0.00
11:52 am 11:52 Cloudy with Mist and Fog 44 6.7 40 4.4 85 85 ESE 5 7 30.19 1022 3 5 0.00 0.00
12:52 pm 12:52 Cloudy with Haze 45 7.2 40 4.4 82 82 ESE 3 6 30.16 1021 5 8 0.00 0.00
1:25 pm 13:25 Cloudy with Haze 46 7.8 41 5 82 82 SE 3 6 30.16 1021 5 8 0.00 0.00
1:52 pm 13:52 Cloudy with Haze 46 7.8 41 5 82 82 SE 7 11 30.11 1020 5 8 0.00 0.00
2:52 pm 14:52 Cloudy with Haze 47 8.3 42 5.6 83 83 SE 6 9 30.12 1020 5 8 0.00 0.00
3:52 pm 15:52 Cloudy with Haze 47 8.3 42 5.6 83 83 Calm 30.14 1021 5 8 0.00 0.00
4:39 pm 16:39 Cloudy with Mist and Fog 46 7.8 42 5.6 86 86 NNE 6 9 30.16 1021 5 8 0.00 0.00
4:52 pm 16:52 Cloudy with Mist and Fog 46 7.8 42 5.6 86 86 E 6 9 30.14 1021 5 8 0.00 0.00
5:27 pm 17:27 Cloudy with Mist and Fog 46 7.8 42 5.6 86 86 SE 7 11 30.14 1021 5 8 0.00 0.00
5:52 pm 17:52 Cloudy with Mist and Fog 46 7.8 42 5.6 86 86 SE 7 11 30.13 1020 6 10 0.00 0.00
6:52 pm 18:52 Cloudy with Mist and Fog 46 7.8 43 6.1 89 89 SSE 6 9 30.13 1020 6 10 0.00 0.00
7:52 pm 19:52 Cloudy with Mist and Fog 46 7.8 44 6.7 93 93 S 6 9 30.13 1020 6 10 0.00 0.00
8:31 pm 20:31 Cloudy with Mist and Fog 46 7.8 44 6.7 93 93 SW 3 6 30.15 1021 6 10 0.00 0.00
8:52 pm 20:52 Cloudy with Mist and Fog 46 7.8 44 6.7 93 93 SSW 3 6 30.13 1020 5 8 0.00 0.00
9:35 pm 21:35 Cloudy with Mist and Fog 46 7.8 45 7.2 96 96 SSW 5 7 30.14 1021 5 8 0.00 0.00
9:52 pm 21:52 Cloudy with Mist and Fog 46 7.8 45 7.2 96 96 Calm 30.13 1020 5 8 0.00 0.00
9:59 pm 21:59 Cloudy with Mist and Fog 46 7.8 45 7.2 96 96 W 5 7 30.15 1021 5 8 0.00 0.00
10:22 pm 22:22 Cloudy with Mist and Fog 46 7.8 45 7.2 96 96 W 7 11 30.15 1021 6 10 0.00 0.00
10:52 pm 22:52 Cloudy with Mist and Fog 46 7.8 44 6.7 93 93 WSW 5 7 30.13 1020 5 8 0.00 0.00
11:18 pm 23:18 Cloudy with Mist and Fog 45 7.2 44 6.7 97 97 WSW 5 7 30.14 1021 5 8 0.00 0.00
11:52 pm 23:52 Cloudy with Mist and Fog 45 7.2 43 6.1 93 93 WSW 6 9 30.12 1020 6 10 0.00 0.00

Powered by AerisWeather